This is the latest recevied weather packets stored in our database for station/object KO4LCK. If no packets are shown the sender has not sent any weather packets the latest 10 day(s).
| Time | Temp. | Humidity | Pressure | Rain* | Wind** | Luminosity | Snow |
|---|---|---|---|---|---|---|---|
| 1788632034 | 36.67° C | 41% | 1014 hPa | 0 mm | - | 748 W/m² | - |
| 1788631733 | 37.22° C | 43% | 1013.9 hPa | 0 mm | - | 752 W/m² | - |
| 1788631448 | 37.78° C | 45% | 1014.1 hPa | 0 mm | - | 752 W/m² | - |
| 1788631124 | 36.67° C | 45% | 1014 hPa | 0 mm | - | 742 W/m² | - |
| 1788630823 | 36.67° C | 47% | 1014.2 hPa | 0 mm | - | 747 W/m² | - |
| 1788630518 | 37.22° C | 47% | 1014.3 hPa | 0 mm | - | 758 W/m² | - |
| 1788630215 | 37.22° C | 44% | 1014.4 hPa | 0 mm | - | 751 W/m² | - |
| 1788629910 | 37.22° C | 45% | 1014.4 hPa | 0 mm | - | 754 W/m² | - |
| 1788629606 | 37.22° C | 46% | 1014.2 hPa | 0 mm | - | 765 W/m² | - |
| 1788629306 | 37.22° C | 46% | 1014.3 hPa | 0 mm | - | 756 W/m² | - |
| 1788629004 | 37.22° C | 47% | 1014.5 hPa | 0 mm | - | 754 W/m² | - |
| 1788628700 | 36.67° C | 49% | 1014.6 hPa | 0 mm | - | 752 W/m² | - |
| 1788628397 | 36.67° C | 47% | 1014.8 hPa | 0 mm | - | 744 W/m² | - |
| 1788628093 | 36.67° C | 47% | 1014.7 hPa | 0 mm | - | 729 W/m² | - |
| 1788627803 | 37.22° C | 47% | 1014.7 hPa | 0 mm | - | 727 W/m² | - |
| 1788627487 | 37.22° C | 48% | 1014.8 hPa | 0 mm | - | 726 W/m² | - |
| 1788627184 | 37.22° C | 48% | 1014.9 hPa | 0 mm | - | 725 W/m² | - |
| 1788626883 | 36.67° C | 50% | 1014.9 hPa | 0 mm | - | 722 W/m² | - |
| 1788626578 | 35.56° C | 51% | 1014.9 hPa | 0 mm | - | 717 W/m² | - |
| 1788626274 | 35° C | 52% | 1014.8 hPa | 0 mm | - | 707 W/m² | - |
| 1788625974 | 35° C | 52% | 1015.1 hPa | 0 mm | - | 707 W/m² | - |
| 1788625666 | 35.56° C | 51% | 1015 hPa | 0 mm | - | 699 W/m² | - |
| 1788625365 | 35.56° C | 54% | 1015.3 hPa | 0 mm | - | 691 W/m² | - |
| 1788625060 | 35° C | 54% | 1015.3 hPa | 0 mm | - | 683 W/m² | - |
| 1788624759 | 34.44° C | 55% | 1015.4 hPa | 0 mm | - | 678 W/m² | - |
* Rain latest hour (hover to see other rain measurements)
** Current wind speed in m/s (hover to see current wind gust speed)